Regional Weather Roundup
Issued by NWS New Orleans/Baton Rouge, LA

Current Version | Previous Version | Text Only | Print | Product List | Glossary On
Versions: 1 2 3 4 5 6 7 8 9 10 11 12 13 14 15 16 17 18 19 20 21 22 23 24 25 26 27
000
ASUS44 KLIX 180913
RWRLIX
NEW ORLEANS REGIONAL WEATHER ROUNDUP
NATIONAL WEATHER SERVICE NEW ORLEANS LA
300 AM CST MON DEC 18 2017

NOTE: "FAIR" INDICATES FEW OR NO CLOUDS BELOW 12,000 FEET WITH NO
      SIGNIFICANT WEATHER AND/OR OBSTRUCTIONS TO VISIBILITY.
      SKY/WX - SKY CONDITION AND SIGNIFICANT WEATHER.
      TMP - AIR TEMPERATURE.     DP    - DEWPOINT TEMPERATURE.
      RH  - RELATIVE HUMIDITY.   PRES  - PRESSURE.
      HI  - HEAT INDEX.          WCI   - WIND CHILL INDEX.

*  THESE STATIONS ARE NOT NWS OR FAA STATIONS AND ARE NOT UNDER
   NWS QUALITY CONTROL.

LAZ038-040-048-061>063-065>067-069-181000-
SOUTHEAST LOUISIANA

CITY           SKY/WX    TMP DP  RH WIND       PRES   REMARKS
N.O. INTL ARPT CLOUDY    67  67 100 S7        30.12S
N.O. LAKEFRONT MOCLDY    62  62 100 SW6       30.14R FOG
N.O. DOWNTOWN* LGT RAIN  66  65  96 CALM      30.13F
RESERVE*       RAIN      66  64  93 CALM      30.12F
SLIDELL        CLOUDY    65  63  93 CALM      30.12F
BATON ROUGE    CLOUDY    63  63 100 CALM      30.13S FOG
BOOTHVILLE     FOG       67  66  97 S3        30.14  VSB 3/4
BELLE CHASSE   LGT RAIN  66 N/A N/A NW5       30.12F
BOGALUSA*      FOG       64  62  91 MISG      30.14F VSB 1/2
GALLIANO*      RAIN      67  64  89 SE5       30.11F
NEW ROADS*     DRIZZLE   60  60  99 CALM      30.14S
GONZALES*      CLOUDY    65  65 100 CALM      30.11F FOG
HAMMOND*       FOG       61  61 100 CALM      30.13F VSB 3/4
HOUMA*         CLOUDY    67  66  96 CALM      30.12R
PORT FOURCHON* MOSUNNY   68  66  94 SE8       30.12F

$$

MSZ070-080>082-181000-
SOUTHERN MISSISSIPPI

CITY           SKY/WX    TMP DP  RH WIND       PRES   REMARKS
MCCOMB         FOG       62  61  96 CALM      30.14R VSB 1/4
GULFPORT       CLOUDY    64  63  96 CALM      30.14R
BILOXI         CLOUDY    61  61 100 CALM      30.14S FOG
PASCAGOULA     CLOUDY    64  63  96 CALM      30.15R FOG

$$

COASTAL OBSERVATIONS
LAKE AND NEARSHORE STATIONS

STATION/POSITION TIME  TEMP    WIND        PRES    WAVE
                       AIR SEA DIR/SP/G            HT/PER
                 (UTC) (F)     (DEG/KT/KT) (MB)    (FT/S)
PASCAGOULA       0848   65     300/  3/  4 1020.2
WAVELAND YACHT   0848   62 55   70/  4/  5 1020.5
GRAND ISLE       0848   67 63  150/  5/  6 1020.1
SOUTHWEST PASS   0848   68 59  140/  5/  6 1020.8
NEW CANAL        0848   66 56  190/  4/  5 1019.9
SHELL BEACH      0848   65 57  160/  9/ 11 1019.8

OFFSHORE STATIONS

STATION/POSITION TIME  TEMP    WIND        PRES    WAVE
                       AIR SEA DIR/SP/G            HT/PER
                 (UTC) (F)     (DEG/KT/KT) (MB)    (FT/S)
64 S DAUPHIN ISL 0850   75 74  200/ 10/ 12 1020.9    4/ 7

$$





USA.gov is the U.S. government's official web portal to all federal, state and local government web resources and services.